Location: Plainartige
(45.6866°N, 1.7993°E)
Time: 20:34:51
(UTC+00:00)

USA 234 - Pass Details

Date: 03 March 2021
Orbit: 1102 x 1105 km, 123.0° (Epoch: 13 April)

Event Time Altitude Azimuth Distance (km) Brightness Sun altitude
Exits shadow 19:39:57 22° 56° (NE) 2,203 4.5 -21.2°
Maximum altitude 19:44:27 78° 140° (SE) 1,129 3.1 -22.0°
Drops below altitude 10° 19:51:00 10° 227° (SW) 2,955 5.9 -23.1°
Sets 19:53:29 0° 229° (SW) 3,911 6.6 -23.5°
